Date String (YYYY-MM-DD hh:mm:ss) UTC,Instrument flags,absolute air pressure of the measurement (hPa),sample flow rate (lpm),inlet stack bypass flow (lpm),air temperature of the measurement (°C),ambient temperature measured by the external sensor (°C),aerosol sample conditioner tube jacket temperature (°C),OPC LED temperature (°C),internal box temperature (°C),relative humidity of the measurement (%),span deviation,mass concentration of particles derived from Lorenz-Mie calculation of OPC scattering (μg/m³),mass concentration of particles derived from Lorenz-Mie calculation of OPC scattering (μg/m³),mass concentration of particles derived from Lorenz-Mie calculation of OPC scattering (μg/m³)
DateTimeUTC,F1_M11,P_M11,Q1_M11,Q2_M11,T1_M11,T2_M11,T3_M11,T4_M11,T5_M11,U1_M11,ZSPAN_M11,X0_M11,X2_M11,X1_M11
2024-01-07 16:00:00,SystemResetWarning,0816.0,5.00,000.00,018.7,017.9,000.0,027.2,020.0,9.7,0000.0,0010.47,0004.46,0003.62
2024-01-07 16:01:00,SystemResetWarning,0816.0,4.99,000.00,018.7,017.9,000.0,027.2,020.0,9.8,0000.0,0010.01,0004.44,0003.65
2024-01-07 16:02:00,SystemResetWarning,0816.0,5.00,000.00,018.7,017.9,000.0,027.2,020.0,9.8,0000.0,0010.52,0004.46,0003.67
2024-01-07 16:03:00,SystemResetWarning,0816.0,5.00,000.00,018.7,017.9,000.0,027.2,020.0,9.9,0000.0,0010.88,0004.51,0003.70
2024-01-07 16:04:00,SystemResetWarning,0815.9,5.00,000.00,018.7,017.9,000.0,027.2,020.0,9.9,0000.0,0011.11,0004.57,0003.72
2024-01-07 16:05:00,SystemResetWarning,0815.9,5.00,000.00,018.7,017.9,000.0,027.2,020.0,10.0,0000.0,0011.10,0004.56,0003.74
2024-01-07 16:06:00,SystemResetWarning,0816.0,5.00,000.00,018.7,017.9,000.0,027.2,020.0,10.0,0000.0,0010.80,0004.57,0003.76
2024-01-07 16:07:00,SystemResetWarning,0816.0,5.00,000.00,018.7,017.9,000.0,027.2,020.0,10.1,0000.0,0010.57,0004.56,0003.78
2024-01-07 16:08:00,SystemResetWarning,0816.0,5.00,000.00,018.7,017.8,000.0,027.2,020.0,10.1,0000.0,0010.59,0004.55,0003.80
2024-01-07 16:09:00,SystemResetWarning,0816.0,5.00,000.00,018.7,017.8,000.0,027.1,020.0,10.1,0000.0,0010.24,0004.53,0003.83
2024-01-07 16:10:00,SystemResetWarning,0816.0,5.00,000.00,018.7,017.8,000.0,027.1,020.0,10.2,0000.0,0010.35,0004.55,0003.85
2024-01-07 16:11:00,SystemResetWarning,0816.0,5.00,000.00,018.7,017.7,000.0,027.2,020.0,10.1,0000.0,0010.77,0004.58,0003.88
2024-01-07 16:12:00,SystemResetWarning,0816.0,5.00,000.00,018.7,017.8,000.0,027.2,020.2,10.1,0000.0,0010.86,0004.62,0003.90
2024-01-07 16:13:00,SystemResetWarning,0816.0,5.01,000.00,018.8,018.4,000.0,027.2,020.6,10.1,0000.0,0010.33,0004.62,0003.92
2024-01-07 16:14:00,SystemResetWarning,0816.0,4.99,000.00,019.0,019.0,000.0,027.2,020.9,10.1,0000.0,0009.85,0004.61,0003.94
2024-01-07 16:15:00,SystemResetWarning,0816.0,4.99,000.00,019.1,019.0,000.0,027.2,020.6,10.0,0000.0,0009.82,0004.64,0003.96
2024-01-07 16:16:00,SystemResetWarning,0816.0,4.99,000.00,019.0,018.9,000.0,027.2,020.4,10.0,0000.0,0009.80,0004.66,0003.96
2024-01-07 16:17:00,SystemResetWarning,0816.0,5.01,000.00,019.0,018.8,000.0,027.2,020.3,10.1,0000.0,0009.89,0004.68,0003.97
2024-01-07 16:18:00,SystemResetWarning,0815.9,5.01,000.00,019.0,018.7,000.0,027.2,020.2,10.1,0000.0,0011.19,0004.71,0003.98
2024-01-07 16:19:00,SystemResetWarning,0815.9,5.00,000.00,019.0,018.5,000.0,027.2,020.2,10.1,0000.0,0011.83,0004.73,0003.97
2024-01-07 16:20:00,SystemResetWarning,0815.9,4.99,000.00,019.0,018.4,000.0,027.2,020.1,10.1,0000.0,0011.55,0004.73,0003.97
2024-01-07 16:21:00,SystemResetWarning,0815.9,4.99,000.00,018.9,018.3,000.0,027.2,020.1,10.2,0000.0,0011.74,0004.70,0003.97
2024-01-07 16:22:00,SystemResetWarning,0815.9,5.00,000.00,018.9,018.2,000.0,027.2,020.0,10.2,0000.0,0012.01,0004.71,0003.96
2024-01-07 16:23:00,SystemResetWarning,0815.9,5.01,000.00,018.9,018.1,000.0,027.2,020.0,10.3,0000.0,0011.79,0004.68,0003.93
2024-01-07 16:24:00,SystemResetWarning,0815.8,5.01,000.00,018.8,018.0,000.0,027.2,020.0,10.3,0000.0,0011.70,0004.67,0003.91
2024-01-07 16:25:00,SystemResetWarning,0815.8,5.00,000.00,018.8,018.0,000.0,027.2,020.0,10.3,0000.0,0011.58,0004.66,0003.87
2024-01-07 16:26:00,SystemResetWarning,0815.8,5.00,000.00,018.8,017.9,000.0,027.2,020.0,10.3,0000.0,0011.55,0004.64,0003.85
2024-01-07 16:27:00,SystemResetWarning,0815.8,4.99,000.00,018.8,017.9,000.0,027.2,020.0,10.3,0000.0,0012.71,0004.60,0003.83
2024-01-07 16:28:00,SystemResetWarning,0815.8,4.99,000.00,018.8,017.8,000.0,027.2,020.0,10.4,0000.0,0013.29,0004.55,0003.81
2024-01-07 16:29:00,SystemResetWarning,0815.8,5.01,000.00,018.8,017.8,000.0,027.2,020.0,10.3,0000.0,0012.02,0004.50,0003.78
2024-01-07 16:30:00,SystemResetWarning,0815.8,5.00,000.00,018.8,017.8,000.0,027.2,020.0,10.3,0000.0,0011.58,0004.47,0003.75
2024-01-07 16:31:00,SystemResetWarning,0815.8,5.00,000.00,018.8,017.7,000.0,027.2,020.0,10.3,0000.0,0011.86,0004.41,0003.71
2024-01-07 16:32:00,SystemResetWarning,0815.8,5.00,000.00,018.8,017.7,000.0,027.2,020.0,10.3,0000.0,0011.42,0004.35,0003.66
2024-01-07 16:33:00,SystemResetWarning,0815.8,5.01,000.00,018.8,017.7,000.0,027.2,020.0,10.3,0000.0,0010.59,0004.23,0003.60
2024-01-07 16:34:00,SystemResetWarning,0815.8,5.00,000.00,018.8,017.7,000.0,027.2,020.0,10.2,0000.0,0010.55,0004.17,0003.55
2024-01-07 16:35:00,SystemResetWarning,0815.8,5.00,000.00,018.8,017.6,000.0,027.2,020.0,10.3,0000.0,0010.62,0004.13,0003.49
2024-01-07 16:36:00,SystemResetWarning,0815.8,5.00,000.00,018.7,017.6,000.0,027.2,020.0,10.3,0000.0,0010.63,0004.02,0003.41
2024-01-07 16:37:00,SystemResetWarning,0815.8,5.00,000.00,018.8,017.6,000.0,027.2,020.0,10.2,0000.0,0010.30,0003.89,0003.33
2024-01-07 16:38:00,SystemResetWarning,0815.8,5.00,000.00,018.7,017.7,000.0,027.2,020.0,10.2,0000.0,0008.85,0003.81,0003.26
2024-01-07 16:39:00,SystemResetWarning,0815.7,5.00,000.00,018.7,017.7,000.0,027.2,020.0,10.1,0000.0,0008.18,0003.75,0003.18
2024-01-07 16:40:00,SystemResetWarning,0815.8,5.00,000.00,018.7,017.7,000.0,027.2,020.0,10.1,0000.0,0008.44,0003.67,0003.11
2024-01-07 16:41:00,SystemResetWarning,0815.7,5.00,000.00,018.7,017.7,000.0,027.2,020.0,10.0,0000.0,0007.90,0003.53,0002.98
2024-01-07 16:42:00,SystemResetWarning,0815.7,5.00,000.00,018.7,017.7,000.0,027.2,020.0,10.0,0000.0,0007.54,0003.46,0002.86
2024-01-07 16:43:00,SystemResetWarning,0815.8,5.00,000.00,018.7,017.6,000.0,027.2,020.0,9.9,0000.0,0007.53,0003.39,0002.75
2024-01-07 16:44:00,SystemResetWarning,0815.8,5.00,000.00,018.7,017.7,000.0,027.2,020.0,9.9,0000.0,0007.51,0003.35,0002.67
2024-01-07 16:45:00,SystemResetWarning,0815.8,5.00,000.00,018.7,017.7,000.0,027.2,020.0,9.8,0000.0,0007.52,0003.31,0002.60
2024-01-07 16:46:00,SystemResetWarning,0815.8,5.00,000.00,018.7,017.7,000.0,027.2,020.0,9.8,0000.0,0007.24,0003.26,0002.55
2024-01-07 16:47:00,SystemResetWarning,0815.8,5.00,000.00,018.7,017.7,000.0,027.2,020.0,9.7,0000.0,0006.76,0003.21,0002.53
2024-01-07 16:48:00,SystemResetWarning,0815.8,5.00,000.00,018.7,017.7,000.0,027.2,020.0,9.6,0000.0,0006.84,0003.19,0002.53
2024-01-07 16:49:00,SystemResetWarning,0815.7,5.00,000.00,018.7,017.7,000.0,027.2,020.0,9.6,0000.0,0006.87,0003.17,0002.52
2024-01-07 16:50:00,SystemResetWarning,0815.8,5.00,000.00,018.7,017.7,000.0,027.2,020.0,9.5,0000.0,0006.58,0003.14,0002.51
2024-01-07 16:51:00,SystemResetWarning,0815.7,5.00,000.00,018.7,017.7,000.0,027.2,020.0,9.4,0000.0,0005.82,0003.13,0002.51
2024-01-07 16:52:00,SystemResetWarning,0815.7,5.00,000.00,018.7,017.7,000.0,027.2,020.0,9.4,0000.0,0006.05,0003.15,0002.51
2024-01-07 16:53:00,SystemResetWarning,0815.8,5.00,000.00,018.8,018.0,000.0,027.2,020.4,9.5,0000.0,0007.09,0003.17,0002.51
2024-01-07 16:54:00,SystemResetWarning,0815.8,5.01,000.00,018.9,018.8,000.0,027.2,020.8,9.4,0000.0,0007.58,0003.20,0002.52
2024-01-07 16:55:00,SystemResetWarning,0815.8,4.99,000.00,019.0,019.1,000.0,027.2,020.7,9.4,0000.0,0007.59,0003.22,0002.52
2024-01-07 16:56:00,SystemResetWarning,0815.8,4.99,000.00,019.0,019.0,000.0,027.2,020.4,9.5,0000.0,0007.91,0003.18,0002.51
2024-01-07 16:57:00,SystemResetWarning,0815.7,5.01,000.00,019.0,018.8,000.0,027.2,020.1,9.7,0000.0,0007.93,0003.17,0002.50
2024-01-07 16:58:00,SystemResetWarning,0815.7,5.01,000.00,018.9,018.6,000.0,027.2,020.0,9.6,0000.0,0008.73,0003.20,0002.50
2024-01-07 16:59:00,SystemResetWarning,0815.7,4.99,000.00,018.9,018.4,000.0,027.2,020.0,9.7,0000.0,0008.77,0003.17,0002.46
